Flag for U.S.A. Weather past 2 weeks in Fargo, North Dakota, U.S.A.

Now
73 °F

Sunny.


Feels Like: 76 °F
Forecast: 60 / 86 °F
Wind: No wind

Location: Hector International Airport

Current Time: Aug 1, 2014 at 9:25:17 PM

Latest Report: Aug 1, 2014 at 8:53 PM


Visibility: 6 mi

Pressure: 30.04 "Hg

Humidity: 64%

Dew point: 60 °F

Location of FargoLocation

Historic Weather in Fargo — Graph

°F

Fargo temperature yesterday

Maximum temperature yesterday: 84 °F (at 3:53 PM)
Minimum temperature yesterday: 56 °F (at 4:53 AM)
Average temperature yesterday: 71 °F

Past Weeks' High & Low Weather Summary

 TemperatureHumidityPressure
High92 °F (Jul 20, 2:53 PM)94% (Jul 21, 4:53 AM)30.30 "Hg (Jul 21, 4:53 AM)
Low52 °F (Jul 29, 5:53 AM)35% (Jul 18, 2:53 PM)29.62 "Hg (Jul 20, 1:53 PM)
Average71 °F68%29.95 "Hg
* Reported Jul 17 7:53 PM — Aug 1 7:53 PM, Fargo, Weather by CustomWeather, © 2014

Note: Actual official high and low records may vary slightly from our data, if they occured in-between our weather recording intervals... More about our weather records

Advertising

Fargo weather history for previous 24 hours

 ConditionsComfort  
Time TempWeatherWind HumidityBarometerVisibility
7:53 PM
Aug 1
77 °FSunny.5 mph52%30.05 "Hg7 mi
6:53 PM81 °FSunny.8 mph39%30.04 "Hg7 mi
5:53 PM82 °FSunny.10 mph40%30.05 "Hg10 mi
4:53 PM83 °FSunny.9 mph40%30.05 "Hg10 mi
3:53 PM83 °FSunny.8 mph43%30.06 "Hg10 mi
2:53 PM84 °FSunny.10 mph43%30.05 "Hg10 mi
1:53 PM82 °FSunny.9 mph46%30.06 "Hg10 mi
12:53 PM82 °FSunny.10 mph49%30.06 "Hg9 mi
11:53 AM80 °FSunny.8 mph54%30.06 "Hg9 mi
10:53 AM77 °FPassing clouds.5 mph62%30.06 "Hg9 mi
9:53 AM72 °FBroken clouds.5 mph73%30.05 "Hg8 mi
8:53 AM67 °FSunny.3 mph81%30.05 "Hg7 mi
7:53 AM62 °FSunny.5 mph90%30.05 "Hg7 mi
6:53 AM60 °FClear.No wind90%30.04 "Hg7 mi
5:53 AM60 °FClear.3 mph90%30.03 "Hg8 mi
4:53 AM61 °FPassing clouds.No wind87%30.02 "Hg8 mi
3:53 AM63 °FClear.3 mph87%30.01 "Hg8 mi
2:53 AM62 °FClear.No wind90%30.00 "Hg8 mi
1:53 AM64 °FClear.No wind81%30.00 "Hg9 mi
12:53 AM66 °FClear.5 mph81%30.00 "Hg9 mi
11:53 PM
Jul 31
70 °FClear.3 mph71%30.00 "Hg9 mi
10:53 PM69 °FClear.No wind79%29.99 "Hg9 mi
9:53 PM72 °FSunny.3 mph68%29.98 "Hg10 mi
Weather by CustomWeather, © 2014

See weather overviewHow to use our weather pages